Hourly Weather Roundup
Issued by NWS Central Illinois

Home | Current Version | Previous Version | Text Only | Print | Product List | Glossary On
Versions: 1 2 3 4 5 6 7 8 9 10 11 12 13 14 15 16 17 18 19 20 21 22 23 24 25 26 27 28 29 30 31 32 33 34 35 36 37 38 39 40 41 42 43 44 45 46 47 48 49 50
370
NZUS43 KILX 290310
HWRILX

AREA WEATHER ROUNDUP
NATIONAL WEATHER SERVICE, LINCOLN IL
1000 PM CDT TUE MAR 28 2017


CITY           SKY/WX    TMP DP  RH WIND       PRES   REMARKS
BLOOMINGTON    CLOUDY    42  39  89 E6        30.19R
CHAMPAIGN      CLOUDY    46  39  76 NE12      30.16R
DECATUR        CLOUDY    48  41  76 E14       30.16R
EFFINGHAM      CLOUDY    54  47  79 NE6       30.14R HAZE
FLORA          MOCLDY    56  48  73 NE6       30.11R
GALESBURG      MOCLDY    44  40  86 NE7       30.17S
JACKSONVILLE   CLOUDY    51  46  84 NE8       30.14S
LACON          CLOUDY    42  39  88 CALM      30.18R
LAWRENCEVILLE  MOCLDY    55  49  80 NE9       30.11R
LITCHFIELD     CLOUDY    51  46  83 NE10      30.12S
$$


CITY           SKY/WX    TMP DP  RH WIND       PRES   REMARKS
LINCOLN        CLOUDY    48  44  87 NE9       30.17S
MACOMB         CLOUDY    47  44  88 NE13      30.18F
MATTOON        CLOUDY    49  43  80 NE12      30.14R
MT CARMEL AP   PTCLDY    55  47  74 NE8       30.10R
OLNEY-NOBLE AP CLOUDY    54  50  87 N6        30.12R
PARIS          CLOUDY    47  43  84 N7        30.15S
PEORIA         CLOUDY    47  40  76 NE7       30.18R
PONTIAC        CLOUDY    41  40  97 E8        30.20R
RANTOUL        CLOUDY    45  41  85 NE9       30.17S
SPRINGFIELD    CLOUDY    50  44  80 NE13      30.15S
TAYLORVILLE    CLOUDY    50  45  81 NE10      30.15R
$$

...REGIONAL REPORTS...


CITY           SKY/WX    TMP DP  RH WIND       PRES   REMARKS
CHICAGO O`HARE CLOUDY    40  35  83 NE9       30.21R WCI  34
KANKAKEE       CLOUDY    41  38  89 NE6       30.20F
MOLINE         PTCLDY    40  36  86 CALM      30.17S
MOUNT STERLING CLOUDY    50  46  85 E9        30.13S
MOUNT VERNON   CLOUDY    57  49  74 NE9       30.10R
PITTSFIELD     CLOUDY    52  47  83 E7        30.14S
QUINCY         CLOUDY    51  47  86 E13       30.12S
ROCKFORD       CLEAR     42  35  76 NE5       30.22R
$$


CITY           SKY/WX    TMP DP  RH WIND       PRES   REMARKS
BURLINGTON     CLOUDY    49  44  83 NE13      30.15F
CEDAR RAPIDS   CLOUDY    40  38  93 E8        30.16F WCI  34
DES MOINES     CLOUDY    51  43  74 E8        30.14R
KIRKSVILLE     CLOUDY    51  47  86 E13       30.10F
OTTUMWA        CLOUDY    49  47  93 E8        30.14S
ST LOUIS       CLOUDY    56  47  71 NE13      30.11R
$$


CITY           SKY/WX    TMP DP  RH WIND       PRES   REMARKS
TERRE HAUTE    CLOUDY    50  43  77 NE7       30.14R
EVANSVILLE     CLOUDY    54  50  86 CALM      30.09S
INDIANAPOLIS   CLOUDY    50  44  80 NE9       30.14S
LAFAYETTE      CLOUDY    45  42  89 N9        30.17S
MADISON        CLEAR     42  36  79 E5        30.21R
MILWAUKEE      DRZL/FOG  34  33  96 NE7       30.25R VSB 1/2 WCI  28
$$






USA.gov is the U.S. government's official web portal to all federal, state and local government web resources and services.